Tracking 22836 objects as of 16-Apr-2021
HD Live streaming from Space Station
objects crossing your sky now

OPS 9381 (GGTS)

Track OPS 9381 (GGTS) now!
OPS 9381 (GGTS) is classified as:


NORAD ID: 2207
Int'l Code: 1966-053A
Perigee: 33,666.0 km
Apogee: 33,851.0 km
Inclination: 5.2 °
Period: 1,333.4 minutes
Semi major axis: 40129 km
RCS: 0.8912 m2 (medium)
Launch date: June 16, 1966
Source: United States (US)
Launch site: AIR FORCE EASTERN TEST RANGE (AFETR)
aabbcc
Your satellite tracking list
Your tracking list is empty




NASA's NSSDC Master Catalog

Two Line Element Set (TLE):
1  2207U 66053A   21106.35055376 -.00000053  00000-0  00000+0 0  9993
2  2207   5.2011  56.6855 0023050 193.9933 257.7294  1.07996110215776
Source of the keplerian elements: AFSPC